Location: Plainartige
(45.6866°N, 1.7993°E)
Time: 13:40:43
(UTC+00:00)

POLYITAN 1 - Pass Details

Date: 05 July 2022
Orbit: 586 x 605 km, 98.0° (Epoch: 18 August)

Event Time Altitude Azimuth Distance (km) Brightness Sun altitude
Rises 00:21:10 0° 35° (NE) 2,865 ? -21.3°
Reaches altitude 10° 00:24:52 10° 68° (ENE) 1,958 ? -21.2°
Maximum altitude 00:26:20 12° 89° (E) 1,853 ? -21.2°
Drops below altitude 10° 00:27:49 10° 109° (ESE) 1,954 ? -21.2°
Enters shadow 00:27:54 10° 110° (ESE) 1,966 ? -21.2°
